Location: Il Ritiro
(43.4167°N, 13.1333°E)
Time: 07:36:03
(UTC+00:00)

Cosmos 1943 Rocket - Pass Details

Date: 05 July 2020
Orbit: 811 x 845 km, 71.0° (Epoch: 05 August)

Event Time Altitude Azimuth Distance (km) Brightness Sun altitude
Rises 22:54:33 0° 338° (NNW) 3,414 6.6 -23.8°
Reaches altitude 10° 22:57:04 10° 343° (NNW) 2,475 5.7 -23.8°
Maximum altitude 23:02:39 55° 61° (ENE) 1,012 2.7 -23.9°
Enters shadow 23:04:38 37° 117° (ESE) 1,295 2.9 -23.9°
